GFSMA_sfc_rhum_180.txt.gz
RH
61 55 54 50 49 48 48 48 47 43 45 44 43 44 50 50 48 44 69 90 88 82 78 78 79 80 80 80 79 78 79 79 80 80 80 81 81 82 83 85 86 87 89
59 52 54 49 47 46 43 42 41 40 36 40 42 44 46 45 49 56 54 78 88 85 80 76 75 76 76 74 73 73 73 74 73 74 76 76 76 76 77 80 82 82 83
63 57 52 50 47 46 49 46 45 39 36 35 41 44 49 54 58 58 61 68 69 82 80 76 73 73 71 69 67 66 67 68 68 69 70 73 75 75 74 75 77 76 78
63 61 53 52 49 48 42 40 36 35 35 36 42 43 52 60 68 66 68 66 63 61 73 76 71 69 67 65 63 63 64 66 65 66 68 72 70 73 75 76 76 76 75
64 58 52 51 55 44 42 38 36 35 37 42 44 48 49 50 53 51 62 61 58 52 52 72 72 69 68 66 64 62 62 62 64 66 69 70 72 73 72 73 74 77 78
71 60 53 57 50 43 41 36 40 37 40 49 44 50 51 48 49 51 52 47 52 52 49 51 50 57 68 65 65 63 62 63 65 69 69 68 67 67 71 70 70 72 73
75 68 54 58 51 46 42 45 42 48 49 52 54 54 56 58 54 50 48 48 46 44 49 45 40 39 45 66 67 65 65 64 63 64 64 66 66 65 66 68 68 70 71
77 63 57 56 52 44 49 49 50 46 49 51 46 49 60 58 54 51 51 51 51 42 43 44 47 46 42 47 60 66 67 66 66 65 66 66 66 67 68 64 68 67 67
73 64 59 55 53 47 46 52 54 55 56 52 52 46 51 46 56 55 60 54 54 43 44 45 46 45 46 44 46 59 67 66 66 65 67 65 65 67 68 68 70 69 69
65 76 83 79 65 60 62 59 58 65 54 58 58 47 57 46 50 58 53 59 50 48 49 41 44 44 43 46 62 66 67 66 65 66 69 70 70 69 71 72 71 69 68
89 88 81 85 89 84 72 65 62 60 52 54 54 55 54 50 47 42 54 56 49 44 44 45 43 43 43 40 47 63 68 68 66 64 66 68 70 70 71 70 71 71 71
96 93 91 92 87 75 74 64 65 58 50 50 45 51 53 53 47 47 47 50 50 49 42 43 46 43 41 46 57 69 70 70 68 67 66 68 69 70 72 71 71 71 72
97 97 92 91 90 76 64 64 62 64 59 55 60 57 63 60 50 43 42 47 50 48 46 43 41 43 39 43 50 62 68 70 70 69 70 67 68 69 70 70 69 71 74
92 92 90 88 88 88 87 86 86 87 83 85 73 66 56 50 45 41 40 49 51 50 47 52 44 46 44 44 59 64 59 65 66 66 65 70 67 67 67 69 69 71 74
84 84 83 86 81 76 77 77 80 81 74 67 64 61 53 54 50 45 44 44 45 48 47 50 45 46 45 49 60 50 53 67 64 64 65 65 68 66 67 69 69 69 73
81 83 75 72 68 68 66 60 60 61 62 59 54 62 58 50 53 50 41 41 39 36 36 39 40 47 48 42 62 55 60 65 66 65 64 66 67 67 69 69 70 67 71
81 81 72 70 66 64 65 65 64 61 59 59 59 58 60 57 53 51 50 45 41 38 34 42 38 45 49 48 53 50 59 70 68 68 65 66 68 67 67 71 73 66 68
78 71 69 66 67 74 77 70 62 61 60 66 71 67 67 59 65 61 52 52 46 45 38 48 41 45 43 47 50 52 39 36 69 69 66 64 66 66 68 70 72 66 64
73 64 60 61 63 70 69 59 59 60 58 58 62 71 73 67 62 49 47 43 41 36 40 40 42 40 39 39 48 46 47 65 69 70 69 66 66 64 64 87 67 64 64
66 61 59 57 62 61 55 53 58 66 69 72 70 58 50 48 48 46 41 44 43 41 42 40 40 41 38 39 37 40 47 51 64 60 68 64 56 63 65 73 64 63 63
61 56 58 61 62 65 61 70 72 74 72 66 59 49 52 64 77 72 47 43 43 39 38 38 38 35 34 36 38 32 33 48 67 64 65 60 53 49 59 86 62 62 60
65 66 73 86 98 76 91 88 78 72 66 61 61 59 63 71 74 79 82 86 88 70 45 41 38 36 36 33 30 31 32 49 60 56 65 61 55 57 63 83 65 64 63
77 87 99 90 99 92 91 88 85 74 70 74 71 66 63 74 71 69 82 83 83 80 71 58 49 51 45 50 37 37 40 49 48 59 60 82 70 85 70 66 79 62 66
100 100 100 100 100 100 93 90 87 100 100 100 100 100 99 93 92 85 87 88 88 87 84 78 82 90 89 69 50 44 48 72 76 75 71 86 86 92 85 78 73 67 63
100 100 100 100 100 100 93 89 94 100 100 99 100 100 100 98 87 84 89 90 87 86 75 73 71 68 70 66 54 44 57 58 83 88 94 92 89 91 92 91 81 68 67
100 100 100 100 99 100 95 91 96 100 100 97 97 99 86 89 83 86 89 88 84 84 83 83 84 82 80 83 73 98 63 61 84 87 91 92 85 85 88 86 86 82 79

GFSMA_sfc_rhum_183.txt.gz
RH
56 51 59 55 54 50 49 50 46 49 47 45 44 45 46 45 45 53 72 92 89 83 79 79 80 80 79 78 78 78 78 78 78 78 78 78 79 79 81 83 84 84 85
61 52 64 53 51 48 48 48 46 44 41 42 44 44 43 42 44 59 70 78 89 84 81 77 76 74 74 73 73 73 72 72 73 74 74 74 76 75 76 79 79 79 79
67 60 54 53 49 48 50 47 47 42 38 37 39 42 41 45 48 56 70 72 75 83 80 75 71 70 67 66 67 68 69 68 68 69 72 74 75 76 75 74 76 77 75
68 64 56 54 49 48 47 46 45 40 37 35 43 42 44 48 50 58 69 64 66 63 73 77 71 68 65 64 63 64 65 66 68 69 67 69 70 72 73 73 76 78 79
69 64 57 61 54 48 46 43 40 39 38 39 38 41 46 47 53 47 63 62 59 56 58 72 72 70 67 64 61 61 62 63 66 67 66 67 68 70 69 69 70 73 74
68 70 77 83 70 47 46 43 48 38 38 44 36 43 47 47 47 50 53 46 50 54 53 56 53 60 69 65 61 60 64 64 67 67 67 64 65 64 66 65 69 68 69
69 74 87 86 83 56 53 52 45 44 40 48 47 52 51 52 52 48 51 49 51 48 51 48 46 47 57 70 69 65 64 63 63 64 64 65 65 67 64 67 67 66 66
85 87 89 86 72 53 57 55 55 45 44 48 50 52 59 61 58 56 62 53 51 45 45 42 44 44 47 52 62 68 67 65 64 64 63 63 64 68 67 67 66 65 64
90 93 89 92 84 61 57 69 68 56 56 59 59 58 63 62 67 61 68 67 56 46 44 46 45 44 45 51 54 63 67 66 65 65 67 67 68 69 69 68 67 66 69
85 88 91 93 94 91 79 66 59 59 65 64 62 59 64 56 66 72 67 72 62 49 54 46 46 43 46 51 64 67 68 67 65 65 66 65 66 69 68 70 69 68 66
90 86 86 92 93 91 92 85 77 66 63 57 59 60 57 63 64 54 69 70 61 55 52 52 48 45 42 48 56 66 68 68 66 64 66 67 70 68 66 67 69 70 71
92 91 90 93 92 90 86 84 81 76 71 65 53 56 65 66 66 65 66 71 74 72 62 56 53 46 44 55 59 70 71 70 68 66 64 65 65 69 68 67 69 69 71
97 96 95 97 97 96 94 92 95 95 94 94 89 78 72 79 79 83 89 88 81 62 58 55 51 47 40 53 58 66 71 70 67 66 66 64 64 68 68 68 71 73 72
97 98 98 96 97 94 88 86 92 93 93 94 89 90 89 83 79 79 77 79 77 70 58 57 50 51 43 50 61 66 61 67 67 66 67 67 64 64 66 67 65 68 72
97 95 92 90 87 85 81 80 88 88 88 91 92 89 83 74 75 68 68 66 70 84 69 58 53 51 53 55 60 59 60 67 64 64 66 67 65 68 65 68 66 69 72
87 82 84 76 84 81 75 77 78 77 77 79 75 69 61 58 56 56 51 49 57 66 66 42 50 50 49 48 62 56 63 66 66 65 67 69 68 67 70 69 66 69 71
76 78 72 70 67 64 60 57 56 58 60 60 60 59 60 56 52 50 54 52 51 46 50 45 42 53 59 56 56 61 60 62 66 66 68 68 68 68 68 74 68 66 66
71 69 70 69 61 62 64 64 56 52 54 60 59 61 63 51 59 58 53 56 54 50 63 60 48 55 56 56 60 57 54 56 66 67 67 68 67 65 73 73 66 65 65
80 73 63 59 56 62 65 61 56 58 60 61 59 60 64 64 65 64 74 73 63 47 59 54 46 47 47 48 55 53 50 71 62 70 68 67 64 65 77 66 65 64 63
66 62 59 54 56 59 60 57 56 59 57 56 62 60 56 55 54 50 45 45 41 46 55 49 42 46 46 50 52 53 58 61 63 57 65 62 58 63 73 64 63 62 60
66 62 60 58 62 63 55 58 58 62 64 64 62 51 55 70 80 70 43 43 42 44 41 44 46 48 48 52 50 42 46 64 71 62 63 58 66 80 82 69 63 62 61
68 65 66 65 74 61 86 80 71 64 63 64 62 59 67 73 74 76 80 89 84 78 45 44 43 48 51 53 46 40 39 60 65 58 65 67 60 63 73 65 65 62 60
72 74 85 75 88 78 89 85 82 71 71 70 68 70 62 69 64 66 78 78 82 79 75 75 64 85 57 66 42 37 41 48 52 64 63 84 70 92 66 80 63 66 63
100 100 100 100 91 100 91 90 86 100 100 100 100 100 97 89 88 80 83 86 89 90 92 91 91 93 90 68 58 48 44 78 79 76 78 84 90 90 89 70 68 66 64
100 100 100 100 100 100 90 90 99 100 100 100 100 100 100 89 80 77 84 87 87 91 85 82 81 79 72 70 70 54 62 66 86 86 93 96 90 90 88 90 80 65 64
100 100 100 100 98 100 91 88 98 100 100 98 97 97 87 87 80 77 84 86 89 92 91 87 84 80 79 81 74 97 71 66 85 90 93 92 86 85 92 84 82 87 88

GFSMA_sfc_rhum_186.txt.gz
RH
76 74 79 72 75 76 76 74 72 71 67 61 60 61 60 65 73 81 94 94 89 86 81 82 82 82 81 81 81 80 80 80 80 79 79 79 79 79 82 82 82 83 83
78 71 79 75 72 71 73 75 75 74 71 68 62 62 60 62 75 83 84 90 91 87 82 77 77 74 74 73 72 72 71 71 72 74 76 76 75 76 76 77 79 80 80
83 78 78 79 77 72 75 77 73 69 70 61 62 63 59 67 80 84 82 79 83 87 84 78 70 67 68 68 69 68 68 69 70 69 68 70 71 76 78 79 80 82 80
81 80 81 81 76 77 80 75 72 71 68 68 70 71 70 70 78 81 77 75 75 73 78 78 71 67 66 65 65 65 66 68 68 69 69 70 70 70 71 72 74 76 78
79 81 81 85 83 85 84 76 73 68 65 65 61 73 72 71 75 70 73 74 75 71 72 74 75 74 66 62 61 62 64 67 67 64 64 66 64 66 65 67 67 68 70
83 82 88 90 87 87 86 72 67 65 64 66 41 64 75 74 77 77 77 62 66 68 72 74 78 78 74 64 62 64 63 62 63 63 63 65 66 64 66 67 65 66 66
87 93 95 90 91 90 81 72 67 64 69 74 74 78 77 68 69 77 78 65 64 60 69 67 69 76 72 70 65 62 61 62 63 64 64 64 67 66 66 67 66 63 66
92 94 93 94 92 91 87 81 65 65 72 73 73 76 86 75 72 73 71 63 65 62 60 59 60 64 67 74 73 68 65 62 62 63 64 65 66 65 66 64 64 66 67
93 93 92 96 97 97 96 95 95 88 88 75 78 78 82 85 83 79 78 72 65 66 63 60 56 60 63 69 69 72 68 65 63 64 63 64 67 66 65 64 64 64 66
94 94 95 95 96 96 96 97 96 97 95 82 86 71 73 78 82 92 82 77 68 62 66 63 62 58 62 70 70 69 68 68 65 64 64 65 68 64 67 68 69 67 65
94 93 94 93 95 95 94 94 95 95 95 95 88 88 76 70 72 77 91 90 81 72 69 70 65 68 63 64 70 70 68 68 65 64 64 63 66 68 67 69 66 67 68
95 94 94 93 93 93 93 95 95 95 97 98 97 97 96 97 97 94 89 89 92 91 84 88 89 80 79 67 64 72 70 70 66 64 63 63 67 68 67 70 70 71 70
98 98 97 97 98 97 97 98 98 98 98 97 97 97 95 96 95 95 95 98 97 98 98 95 91 90 68 72 71 73 70 68 67 65 64 62 65 65 67 67 69 70 71
96 96 97 97 98 98 98 97 98 98 97 97 95 95 96 95 94 94 94 95 98 98 85 75 86 89 82 71 71 72 69 68 67 66 65 62 65 64 67 64 69 72 73
98 98 96 96 96 95 94 94 94 94 92 96 97 95 94 90 91 90 89 92 94 98 95 76 75 78 72 71 71 67 66 66 66 66 66 63 65 70 68 64 67 69 70
94 93 91 91 89 85 85 86 87 89 90 96 92 89 84 83 86 84 74 80 93 96 98 89 76 69 63 60 68 66 66 67 67 68 68 65 64 65 67 67 65 64 66
86 87 86 85 85 84 82 81 82 81 80 82 81 78 76 71 72 69 70 69 77 87 91 86 67 74 77 66 75 70 70 72 71 68 67 68 67 69 70 66 66 65 65
81 81 80 81 77 76 76 77 73 71 74 76 78 79 78 60 75 72 72 72 74 76 85 89 73 77 83 79 74 74 62 62 72 72 68 66 65 76 69 67 65 64 66
82 78 74 72 68 73 76 72 65 67 72 72 74 79 76 77 84 88 86 83 74 57 81 82 78 71 75 74 76 74 77 84 71 72 67 64 68 69 67 64 63 63 63
80 77 72 68 70 69 66 58 64 74 78 77 78 77 77 77 82 85 84 91 85 86 83 82 87 74 74 72 78 82 95 79 77 67 62 65 66 68 66 64 64 62 62
76 71 72 72 72 74 70 80 79 81 80 82 80 67 86 79 76 82 77 69 63 71 82 89 95 73 75 74 78 77 82 94 82 80 83 76 81 97 79 72 63 63 62
79 77 78 78 86 75 82 78 81 87 80 80 83 83 83 77 77 77 85 87 90 95 73 74 76 76 75 72 76 75 82 94 95 78 85 91 97 88 76 82 63 61 61
83 86 88 85 89 89 83 82 81 88 88 86 82 86 80 80 78 85 83 83 81 80 88 89 94 97 88 91 86 79 60 79 81 80 85 98 94 96 87 70 67 66 65
98 98 98 99 98 99 88 86 94 100 100 100 100 96 90 92 89 89 92 95 96 96 97 97 96 99 95 92 88 84 86 86 90 97 92 98 98 98 95 95 65 64 63
100 100 100 100 100 100 90 91 99 100 100 99 97 97 92 94 78 76 94 96 97 96 85 85 86 87 86 79 87 87 87 87 98 99 98 98 98 99 99 98 93 63 62
100 100 100 100 99 100 90 95 98 100 98 98 99 95 83 91 76 76 94 94 97 98 97 98 96 90 87 80 82 96 98 95 96 99 97 98 99 97 100 98 98 96 93

GFSMA_sfc_rhum_189.txt.gz
RH
88 91 92 92 93 91 92 89 86 83 81 67 66 66 82 87 93 97 99 94 90 86 82 83 84 84 84 83 82 82 81 80 79 80 80 79 80 80 82 83 84 85 85
89 90 92 89 90 86 85 82 88 85 78 71 65 68 82 90 91 94 93 93 92 89 85 81 80 79 77 76 74 72 73 74 74 74 75 77 77 78 80 81 83 84 83
94 90 88 87 84 80 87 83 79 82 80 70 64 68 83 91 90 89 88 85 85 87 83 76 70 68 70 71 71 70 70 68 68 69 71 71 70 73 76 76 77 78 79
91 90 87 84 80 81 88 81 82 79 74 74 72 71 86 90 88 85 82 78 76 76 80 78 72 67 67 67 67 68 68 69 66 64 66 65 66 67 68 68 68 71 73
89 93 90 88 87 88 89 85 87 75 70 74 66 78 82 92 88 75 77 76 77 77 79 78 80 76 69 64 64 65 66 64 63 65 66 66 66 67 67 66 67 65 66
93 96 95 93 87 86 90 90 80 80 73 70 54 67 75 87 87 78 77 71 73 78 72 74 85 84 76 67 65 66 64 61 63 64 65 66 66 66 66 66 65 66 66
96 96 97 94 91 86 86 81 83 70 71 73 86 84 84 84 87 80 76 73 72 67 72 80 84 81 79 74 63 62 58 62 64 64 64 65 64 65 62 64 66 66 65
98 96 95 96 95 93 90 86 81 83 81 75 78 84 89 80 82 81 75 71 69 68 67 69 69 72 78 78 73 70 65 61 62 63 64 63 64 64 64 61 61 61 65
95 96 98 97 98 97 97 97 91 86 92 95 84 92 96 94 90 86 85 71 67 68 64 67 64 67 70 74 76 74 72 67 63 62 62 64 65 63 63 63 66 65 62
95 96 96 96 97 97 98 98 97 98 99 99 97 93 91 88 93 98 91 82 75 62 66 64 68 67 68 72 74 74 72 72 66 63 63 68 65 64 68 69 68 68 68
96 95 95 95 96 96 97 96 97 98 98 98 99 99 95 96 96 96 98 96 90 79 70 68 70 74 67 70 85 81 75 71 67 64 62 68 67 67 69 66 67 66 67
98 96 94 95 95 97 97 97 98 97 97 99 98 99 98 97 99 97 97 95 95 96 89 89 92 88 84 72 73 79 74 70 67 64 63 67 68 68 68 71 70 68 70
99 98 96 98 98 98 98 98 98 99 98 98 97 98 96 97 96 96 95 99 98 99 97 96 96 93 74 74 79 78 78 73 70 66 63 65 66 69 67 68 70 70 68
96 98 98 98 97 97 98 97 99 99 98 98 96 96 96 96 95 94 96 96 99 99 98 95 96 93 88 74 77 77 78 75 70 67 65 67 66 68 65 66 68 68 66
98 98 97 98 98 98 98 97 98 99 97 96 95 94 93 94 95 94 94 94 94 99 98 92 96 92 80 76 80 75 77 72 70 70 65 67 69 68 66 68 66 65 65
96 97 97 96 97 97 97 96 98 97 96 98 97 96 90 90 91 92 90 92 96 96 96 96 95 90 74 67 71 77 81 74 72 72 68 68 65 71 69 66 63 63 61
94 94 94 94 93 94 95 94 94 94 96 94 93 89 83 80 84 81 79 86 96 93 95 92 88 82 79 76 74 76 82 79 73 71 70 68 67 73 69 68 65 64 63
92 94 93 94 93 94 94 92 89 86 89 91 90 88 84 71 85 81 83 84 94 93 95 94 85 88 80 85 82 89 71 66 85 73 69 66 74 71 68 65 64 63 65
89 92 92 91 88 86 87 86 81 83 84 85 86 85 81 81 85 87 86 86 85 76 90 91 82 80 83 88 93 94 92 86 82 75 68 67 72 69 65 64 62 61 61
88 88 84 79 80 78 74 70 74 82 83 82 84 82 82 86 89 90 88 90 86 86 83 91 88 83 90 90 94 97 98 98 94 69 64 70 71 67 65 64 62 61 60
84 78 78 84 83 81 70 80 78 85 90 92 86 79 89 83 81 86 83 89 90 94 92 90 99 94 99 99 98 98 98 97 96 98 96 81 96 92 76 65 62 61 58
86 85 89 85 89 73 79 88 90 92 87 84 88 88 86 81 82 84 83 83 86 85 85 96 97 98 92 87 89 99 98 97 97 99 87 91 97 95 76 80 61 61 59
88 89 90 87 90 90 88 86 85 90 89 90 90 88 83 82 84 92 85 88 89 89 92 88 91 95 88 89 88 94 99 94 94 96 96 99 96 96 83 68 63 64 61
98 96 91 94 92 94 85 85 88 94 97 93 91 92 92 93 91 93 96 97 99 97 98 97 97 99 95 93 87 82 85 92 98 99 90 98 98 99 98 96 64 62 59
99 100 100 99 100 96 89 97 98 100 100 100 94 90 92 92 80 83 95 98 99 99 85 84 86 82 83 84 88 84 88 89 98 99 98 97 99 99 99 98 93 63 60
100 100 100 100 97 97 96 98 99 100 98 99 98 94 85 91 79 84 95 96 99 99 99 98 99 93 89 88 88 96 91 89 98 99 96 97 98 98 99 98 98 97 94

GFSMA_sfc_rhum_195.txt.gz
RH
98 99 100 98 100 99 99 98 97 96 93 88 82 97 98 99 99 99 99 95 92 86 80 81 84 86 87 87 87 86 85 85 84 83 83 83 84 85 84 84 84 86 89
98 99 99 98 99 99 99 98 98 97 94 85 94 97 99 97 96 99 99 98 93 90 86 83 84 85 84 84 84 83 81 78 77 78 78 78 81 83 85 86 86 87 87
97 97 99 99 99 99 98 98 96 96 94 81 97 99 99 94 92 92 94 91 92 92 88 86 81 79 78 77 76 74 71 72 72 70 69 69 72 74 76 79 81 83 84
96 98 98 98 98 99 98 98 97 98 95 87 99 100 97 91 87 86 84 84 83 81 84 81 78 73 71 65 67 71 65 66 65 66 66 67 67 67 66 66 69 70 71
94 96 97 97 97 98 98 97 98 95 94 82 89 98 96 92 86 79 81 82 84 88 84 84 81 78 74 73 68 68 67 68 68 66 65 65 64 65 64 65 64 65 66
92 95 97 98 97 98 98 98 96 95 88 85 83 97 98 93 86 84 81 78 77 78 81 82 86 82 80 75 70 67 68 68 66 64 63 64 62 64 64 67 67 68 67
94 95 97 98 98 98 97 97 98 93 92 93 98 98 99 96 92 84 82 79 81 80 82 83 86 86 80 78 70 66 65 65 66 65 64 65 65 63 62 61 66 69 69
96 96 95 97 97 99 98 97 95 96 96 93 97 97 99 99 99 95 97 93 90 89 88 83 82 78 82 82 77 66 63 64 65 66 65 66 67 66 66 69 69 69 70
98 98 98 97 98 97 97 96 92 89 98 99 91 95 100 99 99 99 98 97 96 94 89 81 79 80 83 84 82 78 76 68 64 65 64 63 64 67 69 68 69 69 69
99 99 98 98 98 98 98 97 97 93 94 93 99 98 98 96 98 99 98 98 95 90 86 84 83 78 78 81 79 78 79 79 70 68 68 68 69 71 69 70 70 69 68
99 99 98 98 98 98 98 96 98 97 96 96 95 99 99 98 96 97 99 99 98 94 91 91 92 94 91 90 91 84 83 82 79 79 75 71 68 69 68 68 70 69 69
100 99 99 99 98 98 98 97 97 97 97 96 97 96 95 98 99 98 98 98 97 98 93 92 92 94 93 91 84 85 86 83 78 71 70 72 71 70 69 70 69 69 70
99 99 99 99 99 99 98 97 97 98 97 96 95 96 98 97 95 96 92 98 98 98 98 95 95 95 85 93 90 84 79 80 74 70 70 72 71 72 73 72 70 71 72
99 99 99 99 99 99 99 99 99 99 99 99 98 97 98 98 97 94 93 94 99 99 97 98 96 96 94 87 82 78 79 76 76 73 72 72 72 73 73 71 69 68 70
99 99 99 99 99 98 98 98 99 99 99 99 99 99 98 98 97 96 92 85 89 98 99 99 99 94 89 92 89 83 83 77 76 78 75 71 72 72 70 69 67 69 70
98 99 99 99 99 99 99 99 99 99 98 99 98 95 96 97 96 96 92 91 91 93 98 96 99 95 90 88 89 87 86 77 77 77 75 78 75 78 73 69 68 67 68
98 98 97 98 98 98 97 98 98 97 96 95 93 91 92 91 94 94 94 93 92 92 96 99 95 91 94 95 93 88 90 91 79 73 77 80 81 78 74 70 67 71 72
96 96 96 97 97 98 98 98 98 96 94 94 94 92 94 88 92 89 93 96 97 95 95 98 97 98 96 93 92 97 96 92 84 71 71 78 77 77 76 70 66 68 72
97 96 95 96 96 96 96 96 93 94 94 93 95 93 92 91 89 87 91 94 98 91 94 97 98 92 92 92 97 98 98 99 95 72 71 72 74 77 70 66 66 66 67
95 95 92 93 95 95 93 91 93 95 93 93 92 90 89 88 88 88 85 92 95 97 96 95 98 96 94 93 97 97 98 99 98 78 74 81 74 75 68 64 64 62 62
92 92 93 95 95 94 90 91 91 92 91 91 89 85 87 83 80 84 85 91 92 95 98 96 99 99 99 98 97 97 96 97 100 99 100 94 87 89 84 67 62 60 62
95 96 97 96 97 90 89 90 89 91 88 87 90 90 93 87 88 86 86 87 88 91 95 97 98 98 98 98 99 97 98 97 97 97 98 98 97 97 90 77 62 61 58
97 97 97 96 95 92 89 90 90 90 90 90 91 94 90 93 91 93 90 89 88 86 86 93 95 97 97 98 98 98 97 93 98 98 96 99 97 99 85 66 64 62 62
98 98 97 97 95 97 90 90 89 94 94 92 92 92 91 95 94 94 93 95 97 98 97 96 96 95 95 98 97 92 91 98 99 99 98 99 99 99 96 92 67 64 60
99 100 100 100 100 100 90 90 89 94 93 94 93 93 92 93 89 86 91 96 100 100 88 86 88 85 88 95 97 97 98 97 99 99 99 97 99 98 99 99 97 65 61
100 99 100 100 99 100 90 88 90 96 95 95 96 94 82 86 82 84 91 94 98 100 98 98 100 99 93 93 90 90 94 94 98 99 98 97 99 98 99 99 98 95 94

GFSMA_sfc_rhum_201.txt.gz
RH
77 70 78 72 81 86 72 73 70 66 68 68 66 66 69 72 70 59 59 92 90 87 81 79 82 82 87 87 87 85 84 83 83 83 83 84 84 84 84 85 85 86 86
73 70 78 76 84 90 80 71 71 73 68 74 70 71 72 78 81 73 63 70 94 91 87 83 83 85 86 84 82 80 79 78 78 77 77 78 78 78 79 77 77 77 77
82 75 73 82 80 85 85 80 80 75 71 69 72 77 81 84 84 82 72 68 78 94 90 87 86 83 82 81 79 77 75 74 73 72 70 69 70 70 70 70 70 69 70
85 82 78 74 76 88 84 79 77 76 79 75 73 87 86 85 86 86 75 74 79 83 90 88 86 84 80 78 75 74 70 69 68 69 68 68 66 66 65 66 66 65 63
87 83 77 77 80 86 89 83 89 84 78 82 74 89 90 85 84 79 80 85 83 81 82 88 86 83 82 75 72 70 70 67 66 66 67 65 65 65 64 65 65 65 64
92 87 85 84 82 78 89 90 90 85 82 75 74 94 94 88 83 84 86 80 84 83 79 81 80 77 81 77 72 70 68 66 65 66 66 65 65 64 64 66 67 69 67
92 88 88 88 86 82 84 90 93 93 94 94 98 98 98 95 94 95 96 96 90 86 78 73 80 75 66 79 74 70 67 65 65 66 65 64 65 64 66 66 67 66 65
88 88 89 91 90 90 88 93 96 97 94 96 98 98 100 99 99 97 98 99 96 92 86 86 85 80 67 73 77 71 67 65 67 66 65 66 65 67 66 65 67 65 63
88 89 87 88 91 93 92 93 95 96 98 98 94 97 99 98 98 98 98 99 98 96 95 92 90 89 85 82 71 75 78 72 65 66 65 64 70 69 69 67 65 66 69
96 96 94 94 93 95 95 95 97 97 97 98 98 99 95 94 98 99 98 98 97 97 98 97 96 90 85 80 72 77 82 81 74 69 70 67 68 71 68 70 64 66 65
96 96 98 98 99 99 98 98 99 99 98 98 96 99 98 98 97 95 99 99 98 98 98 98 98 96 91 89 83 84 89 88 81 70 66 65 71 68 68 67 67 66 66
97 95 95 96 96 97 98 98 98 98 98 97 96 95 93 95 97 92 96 98 97 98 98 97 97 97 96 95 87 87 87 82 79 74 69 72 73 70 69 68 66 66 66
96 95 95 97 95 92 95 95 96 97 97 97 95 95 91 93 91 95 88 95 97 98 98 98 98 98 95 95 89 82 80 84 82 78 74 73 71 69 68 64 63 64 66
91 91 94 95 92 90 91 90 92 92 94 97 94 94 94 95 94 89 88 92 97 97 97 97 98 98 97 96 93 86 86 88 84 81 78 75 72 70 66 63 63 64 63
91 90 90 92 92 89 92 91 96 95 96 98 97 97 95 90 92 89 85 80 87 98 97 98 98 97 97 96 92 88 88 84 85 84 81 74 70 69 68 65 63 64 64
90 91 92 92 92 94 95 95 95 94 96 97 96 98 95 88 92 94 90 87 88 85 95 91 97 96 96 95 91 91 90 84 83 84 82 78 70 69 67 66 65 64 64
88 89 90 92 96 96 96 95 94 95 96 97 96 93 91 89 94 98 97 95 92 93 95 98 95 96 98 97 95 92 88 83 81 84 84 78 75 72 70 70 68 64 64
86 88 88 90 94 95 95 96 97 97 96 97 93 95 92 95 96 93 94 97 96 95 94 97 97 98 96 95 94 94 86 76 81 82 80 77 75 72 71 71 68 65 64
84 85 88 92 93 95 96 95 95 96 96 95 95 97 97 95 97 98 95 95 95 92 87 93 96 92 95 94 96 95 94 90 75 81 80 78 74 70 71 69 68 66 64
86 87 87 89 91 92 93 93 94 96 96 94 94 89 87 85 87 90 92 94 93 92 86 88 93 94 94 95 96 97 97 98 94 76 70 72 68 69 67 65 65 65 64
87 87 89 90 90 91 91 94 94 94 95 93 91 88 92 90 90 89 91 93 88 89 90 89 94 95 97 98 96 97 96 96 97 96 78 73 65 59 60 61 62 64 64
90 90 93 92 94 94 96 96 93 95 95 89 93 92 92 95 94 91 88 91 84 85 85 88 94 95 95 96 97 96 96 96 92 95 80 86 73 63 56 50 62 64 66
89 96 96 96 97 94 97 97 97 95 95 93 89 89 86 94 89 84 89 91 90 90 85 83 90 92 96 96 96 97 96 78 66 85 82 96 83 84 59 51 65 63 61
94 97 93 97 97 97 98 97 98 98 100 100 100 100 98 98 98 94 96 99 100 100 98 94 92 100 99 92 88 82 83 86 91 97 85 96 95 95 87 64 68 66 63
88 98 100 99 100 100 99 98 99 100 100 100 100 100 100 100 96 92 100 100 100 100 90 95 99 98 96 90 82 79 92 88 96 100 100 98 95 96 99 96 82 69 65
95 95 97 100 100 100 100 99 99 100 100 100 100 100 97 98 93 90 100 100 100 100 100 100 100 100 99 96 88 97 85 88 95 98 100 99 95 92 94 92 96 92 77

GFSMA_sfc_rhum_207.txt.gz
RH
53 45 42 41 43 43 44 45 43 44 46 49 48 51 51 50 49 40 64 88 88 87 81 76 78 81 84 87 88 86 85 83 85 85 86 84 84 84 84 84 83 83 82
51 45 43 40 39 41 41 43 44 45 48 49 51 54 51 49 48 48 56 69 91 90 86 83 79 80 82 85 87 85 84 84 83 82 83 84 82 81 79 77 76 75 75
56 54 46 45 43 44 51 47 47 47 46 47 51 51 53 53 49 51 50 59 72 95 92 89 87 84 84 86 84 84 83 82 81 80 80 78 77 75 73 71 70 69 69
55 63 48 48 45 49 50 50 48 49 50 49 55 50 56 54 54 59 56 65 77 62 90 96 90 89 88 85 84 83 80 79 77 76 75 73 72 70 69 67 65 65 65
60 68 50 47 53 50 53 56 51 56 54 53 49 49 55 64 62 57 60 60 76 78 85 95 95 91 88 86 81 80 78 76 73 72 71 69 68 67 67 66 66 67 68
67 68 57 55 56 57 53 58 57 51 50 58 50 66 65 70 68 68 61 63 71 73 83 91 88 93 92 87 82 77 74 71 70 69 69 67 66 67 67 68 68 67 68
79 79 63 69 70 70 68 65 64 68 67 60 77 84 91 92 88 78 88 86 83 82 92 94 93 93 89 88 83 74 72 70 69 68 67 65 66 69 68 67 66 65 65
80 83 84 70 73 74 74 74 71 76 81 81 78 89 98 98 98 95 96 93 95 96 99 95 95 92 89 87 85 79 72 70 69 68 65 67 69 68 68 68 68 68 67
83 86 85 83 85 86 80 82 81 87 94 92 87 88 99 98 97 93 97 97 96 98 97 98 98 96 90 91 91 85 81 78 69 66 68 70 71 72 67 67 65 71 73
79 85 86 86 87 91 91 88 84 90 95 98 98 98 95 92 97 99 96 97 95 96 97 99 99 98 94 96 92 90 86 82 76 69 68 73 73 69 67 66 67 70 75
88 86 89 91 92 91 92 88 89 96 97 96 97 99 99 99 97 96 99 98 97 95 97 98 99 99 99 97 95 92 90 85 81 76 72 71 70 69 66 66 66 67 68
95 91 93 94 90 93 95 95 94 94 98 98 96 96 95 96 97 96 97 97 97 98 97 98 98 99 98 96 91 92 91 89 87 84 77 77 73 70 67 65 67 66 66
96 95 94 95 94 92 92 94 96 98 98 99 98 97 93 88 90 88 92 96 96 96 97 97 98 99 98 96 94 92 90 90 90 89 89 81 76 72 67 65 66 66 64
91 92 93 92 89 86 84 82 83 87 91 95 96 97 96 93 94 89 91 94 99 98 98 96 97 98 98 97 95 92 93 94 96 95 90 83 78 74 70 66 67 66 66
88 86 83 82 80 79 78 78 82 83 85 88 91 92 93 92 92 91 91 87 91 98 97 98 98 97 98 98 96 94 94 96 96 95 89 82 76 73 69 68 67 67 66
80 78 77 73 73 74 73 75 79 80 82 87 90 91 87 89 92 94 90 89 90 92 95 92 95 96 98 97 97 96 96 95 95 94 92 88 81 71 70 68 68 69 66
67 66 66 66 66 66 67 72 77 79 82 84 86 85 87 83 90 94 95 92 92 91 94 97 93 96 98 98 98 97 96 96 95 93 91 88 78 75 71 70 69 66 64
60 59 59 59 60 62 65 71 75 74 78 81 80 88 86 88 92 93 95 94 91 89 93 98 98 99 97 96 96 98 97 94 95 90 86 80 79 76 72 69 68 66 67
60 57 58 60 60 64 65 68 73 76 80 83 88 90 87 90 95 96 97 96 96 97 96 96 98 94 96 97 98 97 97 98 92 86 82 80 76 73 71 70 68 67 68
61 60 62 64 70 70 67 67 68 76 80 82 85 88 88 91 90 93 96 97 97 97 96 96 97 98 96 96 94 98 99 99 97 80 74 73 74 73 71 70 68 67 67
67 64 66 66 67 68 64 68 72 76 80 84 86 87 91 94 95 95 95 94 97 98 97 97 97 96 98 98 98 99 98 98 98 90 84 77 73 68 67 67 67 66 65
58 59 60 60 63 64 89 94 92 82 87 90 94 94 94 97 97 99 98 98 95 97 97 95 93 95 95 96 99 98 98 97 98 92 87 84 72 72 61 59 65 68 66
50 58 60 60 61 60 90 96 96 86 94 96 97 97 98 98 99 98 98 99 98 97 90 88 92 90 94 96 97 98 96 88 91 96 86 96 82 87 64 59 71 70 69
60 57 55 54 56 55 91 96 98 94 99 100 100 100 100 100 99 100 100 100 100 100 100 97 89 90 90 91 88 83 86 90 94 94 84 98 98 99 84 70 70 70 69
50 53 69 71 65 99 100 100 99 100 100 100 100 100 100 100 99 99 100 100 100 100 100 99 100 98 96 91 86 93 95 96 98 100 99 100 100 100 100 95 79 67 66
57 58 56 71 99 98 100 100 99 100 100 100 100 100 99 100 99 99 100 100 100 100 100 100 100 100 99 97 91 87 89 96 97 99 100 100 99 98 97 100 94 88 82